FW6973 Weather Reports


time (UTC)temp
F
wind
direction
speed
knots
gust
knots
rain 1hr
in
rain 24hr
in
rain mn
in
humidity
%
barometer
mb
20260503200056 80 61 0.9 4.3 0.00 0.00 0.00 43 1013.7
20260503194618 79 23 0.9 3.5 0.00 0.00 0.00 44 1013.9
20260503193058 79 88 0.9 3.5 0.00 0.00 0.00 40 1014.1
20260503191604 78 67 0.9 2.6 0.00 0.00 0.00 45 1014.3
20260503184600 75 96 0.9 5.2 0.00 0.00 0.00 49 1014.7
20260503183107 74 0 2.6 5.2 0.00 0.00 0.00 46 1014.7
20260503181558 74 155 0.9 2.6 0.00 0.00 0.00 50 1014.9
20260503180108 74 65 0.9 2.6 0.00 0.00 0.00 48 1015.0
20260503174557 73 0 0.9 4.3 0.00 0.00 0.00 50 1015.1
20260503173203 71 155 0.0 4.3 0.00 0.00 0.00 54 1015.2
20260503171559 70 188 0.0 1.7 0.00 0.00 0.00 61 1015.3
20260503130113 44 0 0.0 0.0 0.00 0.00 0.00 96 1016.3
20260503120111 46 0 0.0 0.9 0.00 0.00 0.00 96 1016.4
20260503100112 48 142 0.0 0.9 0.00 0.00 0.00 92 1016.7
20260503090104 49 0 0.0 0.0 0.00 0.00 0.00 90 1016.5
20260503081600 50 0 0.0 2.6 0.00 0.00 0.00 89 1016.4
20260503071558 52 0 0.0 0.0 0.00 0.00 0.00 85 1016.4
20260503054609 56 0 0.0 3.5 0.00 0.00 0.00 78 1015.9
20260503053110 58 0 0.0 0.0 0.00 0.00 0.00 73 1015.9
20260503051606 58 0 0.0 1.7 0.00 0.00 0.00 72 1015.9
20260503050107 60 0 0.0 0.0 0.00 0.00 0.00 69 1015.8
20260503044559 61 0 0.0 0.9 0.00 0.00 0.00 67 1015.7
20260503043101 62 0 0.0 0.0 0.00 0.00 0.00 65 1015.7
20260503041558 64 0 0.0 1.7 0.00 0.00 0.00 63 1015.5
20260503040059 66 0 0.0 0.9 0.00 0.00 0.00 56 1015.4
20260503034558 68 0 0.0 1.7 0.00 0.00 0.00 55 1015.1
20260503033100 70 0 0.0 1.7 0.00 0.00 0.00 51 1015.0
20260503031610 73 0 0.0 0.9 0.00 0.00 0.00 47 1015.0
20260503030058 75 0 0.0 1.7 0.00 0.00 0.00 43 1014.7
20260503024604 78 280 0.0 2.6 0.00 0.00 0.00 40 1014.7
20260503023059 79 282 0.9 3.5 0.00 0.00 0.00 36 1014.7
20260503021600 80 292 0.0 3.5 0.00 0.00 0.00 37 1014.6
20260503020104 81 299 1.7 3.5 0.00 0.00 0.00 36 1014.5
20260503014600 81 0 0.0 5.2 0.00 0.00 0.00 35 1014.5
20260503013101 81 0 0.0 5.2 0.00 0.00 0.00 33 1014.6
20260503011609 81 93 0.9 5.2 0.00 0.00 0.00 35 1014.5
20260503010054 80 146 1.7 5.2 0.00 0.00 0.00 34 1014.5
20260503004559 81 256 0.9 7.0 0.00 0.00 0.00 37 1014.5
20260503003055 82 173 2.6 7.8 0.00 0.00 0.00 33 1014.5
20260503001559 83 157 1.7 7.0 0.00 0.00 0.00 36 1014.6
20260503000109 83 175 3.5 10.4 0.00 0.00 0.00 35 1014.6
20260502234559 83 203 2.6 7.8 0.00 0.00 0.00 36 1014.7
20260502233056 83 188 0.9 7.8 0.00 0.00 0.00 35 1015.1
20260502231618 83 124 0.0 6.1 0.00 0.00 0.00 37 1015.3
20260502230055 83 54 0.9 6.1 0.00 0.00 0.00 39 1015.6
20260502224600 82 184 0.9 5.2 0.00 0.00 0.00 40 1015.7
20260502223057 82 119 0.9 5.2 0.00 0.00 0.00 40 1015.9
20260502221559 81 177 3.5 7.0 0.00 0.00 0.00 39 1016.1
20260502220059 81 165 1.7 5.2 0.00 0.00 0.00 42 1016.2
20260502214556 82 177 0.9 3.5 0.00 0.00 0.00 42 1016.4
20260502213104 80 90 0.9 3.5 0.00 0.00 0.00 41 1016.5
20260502211602 80 65 0.9 3.5 0.00 0.00 0.00 46 1016.6
20260502210057 79 81 0.9 3.5 0.00 0.00 0.00 45 1016.7
20260502204558 79 97 1.7 4.3 0.00 0.00 0.00 49 1016.9
20260502203058 78 187 0.9 3.5 0.00 0.00 0.00 42 1017.0
20260502201601 77 53 1.7 5.2 0.00 0.00 0.00 48 1017.1